Regional Weather Roundup
Issued by NWS Midland/Odessa, TX

Skip options and go directly to product.
Home | Oldest Version | Previous Version | Current Version | All | Graphics & Text | Save Text | Print | Product List | Glossary On

Skip product version selection by date and time.   
090
ASUS44 KMAF 270610
RWRMAF
MIDLAND AREA WEATHER ROUNDUP
NATIONAL WEATHER SERVICE MIDLAND TX
100 AM CDT FRI MAY 27 2016

...IN SOUTHWEST TEXAS AND SOUTHEAST NEW MEXICO...

CITY           SKY/WX    TMP DP  RH WIND       PRES   REMARKS
ALPINE         PTCLDY    67  17  14 W5        29.96S
ANDREWS        FAIR      72  54  53 SW5       29.80S
ARTESIA        CLEAR     63  16  16 W13       29.81S
BIG SPRING     MOCLDY    70  57  63 SE9       29.75F
CARLSBAD       CLEAR     72  13  10 W17       29.78R
DRYDEN           N/A     73  62  68 NW7       29.73R
FORT STOCKTON  PTCLDY    75  37  25 NW8       29.79R
GUAD PASS      NOT AVBL
HOBBS          MOCLDY    68  16  13 W6        29.83R
MARFA          CLEAR     61  16  17 NW6       29.94R
MIDLAND AIRPK  PTCLDY    75  55  50 S5        29.78R
MIDLAND INTL   CLEAR     73  56  54 SW6       29.77S
ODESSA         CLEAR     74  52  46 SW7       29.79R
PECOS          CLOUDY    68  21  17 SW9       29.77R
PRESIDIO       FAIR      81   6   6 W13       29.79R
SEMINOLE       PTCLDY    72  24  16 CALM      29.82R
SNYDER           N/A     68  61  77 S15       29.75F
WINK           PTCLDY    72  24  16 N7        29.77R
$$
...OTHER STATIONS IN TEXAS...

CITY           SKY/WX    TMP DP  RH WIND       PRES   REMARKS
ABILENE        TSTM      65  62  90 VRB3      29.74F
AMARILLO       CLEAR     65  22  19 N17       29.79R
AUSTIN         TSTM      70  70 100 NE15      29.84R VSB 1/2
BROWNSVILLE    CLOUDY    81  78  91 SE13      29.81F
CORPUS CHRISTI CLOUDY    82  77  84 S17G25    29.73F
DALLAS FTW     CLOUDY    68  64  87 S20       29.74F
DEL RIO        CLEAR     79  72  79 E8        29.65F
EL PASO        CLEAR     71  13  10 NW14      29.90R
HOUSTON INT    CLOUDY    68  67  96 SE9       29.89F
LUBBOCK        CLOUDY    72  42  34 SW6       29.78R
SAN ANGELO     MOCLDY    68  66  93 NE7       29.68F
SAN ANTONIO    CLOUDY    78  73  84 SE13      29.77S
WACO           LGT RAIN  68  65  90 N12       29.85R
WICHITA FALLS  NOT AVBL
$$
...OTHER LOCATIONS IN NEW MEXICO...

CITY           SKY/WX    TMP DP  RH WIND       PRES   REMARKS
ALAMAGORDO     CLEAR     59  12  15 NE6       29.90S
ALBUQUERQUE    PTCLDY    58  24  27 N6        29.95S
CANNON AFB     CLEAR     63  13  14 NW20G26   29.79F
CLOVIS         CLEAR     63  16  16 NW22      29.78F
HOLLOMAN AFB   CLEAR     62  11  13 W10       29.89R
ROSWELL        CLEAR     63  15  15 W14       29.81F
RUIDOSO          N/A     54   9  16 W10       30.02S
SANTA FE       CLOUDY    50  21  32 W3        29.95R
TRUTH OR CONSE CLEAR     62  17  17 NW12      29.93S
TUCUMCARI      CLEAR     55  20  25 CALM      29.80R
$$

USA.gov is the U.S. government's official web portal to all federal, state and local government web resources and services.